TimePST,TemperatureF,Dew PointF,Humidity,Sea Level PressureIn,VisibilityMPH,Wind Direction,Wind SpeedMPH,Gust SpeedMPH,PrecipitationIn,Events,Conditions,WindDirDegrees,DateUTC
12:52 AM,36.0,19.0,50,29.80,10.0,SSW,8.1,-,N/A,,Clear,200,2013-02-23 08:52:00
1:52 AM,35.1,19.9,54,29.82,10.0,SW,9.2,-,N/A,,Clear,220,2013-02-23 09:52:00
2:52 AM,35.1,21.0,57,29.84,10.0,SSW,9.2,-,N/A,,Clear,210,2013-02-23 10:52:00
3:52 AM,34.0,23.0,64,29.85,10.0,WSW,9.2,-,N/A,,Clear,250,2013-02-23 11:52:00
4:52 AM,34.0,23.0,64,29.87,10.0,WSW,12.7,-,N/A,,Clear,250,2013-02-23 12:52:00
5:52 AM,33.1,23.0,66,29.88,10.0,SSW,10.4,-,N/A,,Clear,210,2013-02-23 13:52:00
6:52 AM,33.1,23.0,66,29.91,10.0,SSW,9.2,-,N/A,,Clear,210,2013-02-23 14:52:00
7:52 AM,35.1,24.1,64,29.94,10.0,SSW,9.2,-,N/A,,Clear,210,2013-02-23 15:52:00
8:52 AM,37.9,26.1,62,29.97,10.0,SW,8.1,-,N/A,,Clear,220,2013-02-23 16:52:00
9:52 AM,44.1,24.1,45,30.01,10.0,WSW,6.9,-,N/A,,Clear,250,2013-02-23 17:52:00
10:52 AM,46.9,21.9,37,30.02,10.0,WSW,11.5,-,N/A,,Clear,250,2013-02-23 18:52:00
11:52 AM,48.9,24.1,38,30.03,10.0,SW,5.8,-,N/A,,Clear,230,2013-02-23 19:52:00
12:52 PM,50.0,23.0,35,30.03,10.0,NNW,9.2,-,N/A,,Clear,330,2013-02-23 20:52:00
1:52 PM,52.0,21.9,31,30.04,10.0,NNW,13.8,20.7,N/A,,Partly Cloudy,330,2013-02-23 21:52:00
2:52 PM,52.0,21.0,30,30.07,10.0,WNW,18.4,27.6,N/A,,Partly Cloudy,300,2013-02-23 22:52:00
3:52 PM,51.1,21.0,31,30.10,10.0,WNW,17.3,29.9,N/A,,Mostly Cloudy,300,2013-02-23 23:52:00
4:52 PM,46.9,21.0,36,30.12,10.0,WNW,17.3,21.9,N/A,,Clear,300,2013-02-24 00:52:00
5:52 PM,43.0,21.9,43,30.15,10.0,West,11.5,-,N/A,,Clear,280,2013-02-24 01:52:00
6:52 PM,39.9,21.9,49,30.19,10.0,WNW,12.7,-,N/A,,Clear,290,2013-02-24 02:52:00
7:52 PM,37.9,21.9,53,30.21,10.0,West,10.4,-,N/A,,Clear,270,2013-02-24 03:52:00
8:52 PM,35.1,21.9,59,30.25,10.0,West,6.9,-,N/A,,Clear,260,2013-02-24 04:52:00
9:52 PM,35.1,23.0,61,30.25,10.0,West,9.2,-,N/A,,Clear,280,2013-02-24 05:52:00
10:52 PM,33.1,21.9,64,30.25,10.0,West,6.9,-,N/A,,Clear,280,2013-02-24 06:52:00
11:52 PM,33.1,23.0,66,30.27,10.0,West,6.9,-,N/A,,Clear,270,2013-02-24 07:52:00